Home   Weather   Longueuil   Past weeks

Flag for Canada Past Weather in Longueuil, Quebec, Canada — Yesterday and Last 2 Weeks

Now
26 °F

Chilly.


Feels Like: 18 °F
Forecast: 26 / 31 °F
Wind: 7 mph from Northeast

Location: Mc Tavish

Current Time: Jan 24, 2017 at 4:05:21 am

Latest Report: Jan 24, 2017 at 3:00 am


Visibility: N/A

Pressure: 29.90 "Hg

Humidity: 75%

Dew Point: 19 °F

Location of LongueuilLocation

Past Weather in Longueuil — Graph

°F

Longueuil Temperature Yesterday

Maximum temperature yesterday: 32 °F (at 2:00 pm)
Minimum temperature yesterday: 25 °F (at 10:00 pm)
Average temperature yesterday: 29 °F

High & Low Weather Summary for the Past Weeks

 TemperatureHumidityPressure
High42 °F (Jan 12, 2:00 pm)100% (Jan 12, 11:00 am)30.79 "Hg (Jan 12, 11:00 am)
Low-3 °F (Jan 9, 6:00 am)40% (Jan 13, 4:00 pm)29.62 "Hg (Jan 11, 5:00 am)
Average27 °F80%30.12 "Hg
* Reported Jan 9 2:00 am — Jan 24 2:00 am, Longueuil, Weather by CustomWeather, © 2017

Note: Actual official high and low records may vary slightly from our data, if they occured in-between our weather recording intervals... More about our weather records

Advertising

Longueuil Weather History for the Previous 24 Hours

Scroll right to see more
 ConditionsComfort  
Time TempWeatherWind HumidityBarometerVisibility
2:00 am
Tue, Jan 24
26 °FChilly.7 mph76%29.93 "HgN/A
1:00 am25 °FChilly.7 mph78%29.94 "HgN/A
12:00 am25 °FChilly.7 mph79%29.95 "HgN/A
11:00 pm
Mon, Jan 23
26 °FChilly.6 mph81%29.97 "HgN/A
10:00 pm25 °FChilly.6 mph82%29.99 "HgN/A
9:00 pm26 °FChilly.7 mph82%30.01 "HgN/A
8:00 pm26 °FChilly.6 mph81%30.02 "HgN/A
7:00 pm27 °FChilly.6 mph80%30.02 "HgN/A
6:00 pm27 °FChilly.7 mph80%30.02 "HgN/A
5:00 pm29 °FChilly.8 mph77%30.03 "HgN/A
4:00 pm31 °FChilly.6 mph72%30.02 "HgN/A
3:00 pm31 °FChilly.7 mph72%30.02 "HgN/A
2:00 pm32 °FChilly.6 mph71%30.03 "HgN/A
1:00 pm31 °FChilly.7 mph71%30.05 "HgN/A
12:00 pm31 °FChilly.6 mph75%30.03 "HgN/A
11:00 am29 °FChilly.7 mph75%30.06 "HgN/A
10:00 am31 °FChilly.6 mph71%30.07 "HgN/A
9:00 am29 °FChilly.5 mph78%30.07 "HgN/A
8:00 am28 °FChilly.5 mph82%30.05 "HgN/A
7:00 am28 °FChilly.7 mph91%30.04 "HgN/A
6:00 am28 °FChilly.6 mph90%30.04 "HgN/A
5:00 am28 °FChilly.7 mph88%30.05 "HgN/A
4:00 am29 °FChilly.6 mph83%30.03 "HgN/A
Weather by CustomWeather, © 2017

See weather overviewHow to use our weather pages